Time,TemperatureF,DewpointF,PressureIn,WindDirection,WindDirectionDegrees,WindSpeedMPH,WindSpeedGustMPH,Humidity,HourlyPrecipIn,Conditions,Clouds,dailyrainin,SoftwareType,DateUTC
2016-02-14 00:04:00,13.0,5.0,30.53,SE,132,0.0,2.0,70,-99.99,,,-99.99,,2016-02-14 05:04:00,
2016-02-14 00:14:00,13.0,5.0,30.53,SE,132,0.0,2.0,71,-99.99,,,-99.99,,2016-02-14 05:14:00,
2016-02-14 00:24:00,13.0,6.0,30.53,SE,132,0.0,3.0,72,-99.99,,,-99.99,,2016-02-14 05:24:00,
2016-02-14 00:47:00,12.0,5.0,30.53,SE,132,0.0,2.0,72,-99.99,,,-99.99,,2016-02-14 05:47:00,
2016-02-14 01:05:00,12.0,5.0,30.53,SE,132,0.0,4.0,73,-99.99,,,-99.99,,2016-02-14 06:05:00,
2016-02-14 01:14:00,12.0,5.0,30.53,SE,132,0.0,3.0,74,-99.99,,,-99.99,,2016-02-14 06:14:00,
2016-02-14 01:34:00,12.0,5.0,30.53,SE,132,1.0,3.0,74,-99.99,,,-99.99,,2016-02-14 06:34:00,
2016-02-14 01:44:00,12.0,6.0,30.53,SE,132,0.0,0.0,75,-99.99,,,-99.99,,2016-02-14 06:44:00,
2016-02-14 02:04:00,13.0,7.0,30.53,SE,132,0.0,2.0,75,-99.99,,,-99.99,,2016-02-14 07:04:00,
2016-02-14 02:13:00,14.0,7.0,30.53,NNE,28,2.0,5.0,72,-99.99,,,-99.99,,2016-02-14 07:13:00,
2016-02-14 02:34:00,14.0,6.0,30.53,NNE,15,1.0,4.0,69,-99.99,,,-99.99,,2016-02-14 07:34:00,
2016-02-14 02:55:00,14.0,5.0,30.52,North,5,2.0,-999.0,67,-99.99,,,-99.99,,2016-02-14 07:55:00,
2016-02-14 03:04:00,14.0,5.0,30.51,North,355,2.0,4.0,67,-99.99,,,-99.99,,2016-02-14 08:04:00,
2016-02-14 03:14:00,14.0,5.0,30.51,NNE,18,0.0,5.0,68,-99.99,,,-99.99,,2016-02-14 08:14:00,
2016-02-14 03:24:00,14.0,5.0,30.51,NNE,18,0.0,5.0,68,-99.99,,,-99.99,,2016-02-14 08:24:00,
2016-02-14 03:34:00,13.0,5.0,30.51,NE,48,0.0,4.0,69,-99.99,,,-99.99,,2016-02-14 08:34:00,
2016-02-14 04:03:00,13.0,4.0,30.52,North,360,1.0,5.0,67,-99.99,,,-99.99,,2016-02-14 09:03:00,
2016-02-14 04:13:00,13.0,4.0,30.52,East,82,0.0,3.0,67,-99.99,,,-99.99,,2016-02-14 09:13:00,
2016-02-14 04:23:00,13.0,4.0,30.52,East,82,0.0,3.0,67,-99.99,,,-99.99,,2016-02-14 09:23:00,
2016-02-14 04:36:00,13.0,4.0,30.51,NE,46,0.0,3.0,67,-99.99,,,-99.99,,2016-02-14 09:36:00,
2016-02-14 04:44:00,14.0,5.0,30.52,NE,46,0.0,2.0,66,-99.99,,,-99.99,,2016-02-14 09:44:00,
2016-02-14 04:54:00,14.0,5.0,30.52,NE,46,0.0,2.0,66,-99.99,,,-99.99,,2016-02-14 09:54:00,
2016-02-14 05:04:00,14.0,4.0,30.52,East,92,1.0,5.0,64,-99.99,,,-99.99,,2016-02-14 10:04:00,
2016-02-14 05:13:00,13.0,3.0,30.52,East,92,0.0,2.0,63,-99.99,,,-99.99,,2016-02-14 10:13:00,
2016-02-14 05:24:00,13.0,3.0,30.52,East,92,0.0,2.0,63,-99.99,,,-99.99,,2016-02-14 10:24:00,
2016-02-14 05:36:00,14.0,4.0,30.51,East,79,0.0,5.0,64,-99.99,,,-99.99,,2016-02-14 10:36:00,
2016-02-14 05:56:00,14.0,4.0,30.52,ENE,57,0.0,3.0,64,-99.99,,,-99.99,,2016-02-14 10:56:00,
2016-02-14 06:04:00,14.0,4.0,30.52,ENE,57,0.0,3.0,64,-99.99,,,-99.99,,2016-02-14 11:04:00,
2016-02-14 06:13:00,14.0,4.0,30.52,ENE,78,0.0,4.0,65,-99.99,,,-99.99,,2016-02-14 11:13:00,
2016-02-14 06:23:00,14.0,4.0,30.52,ENE,78,0.0,4.0,65,-99.99,,,-99.99,,2016-02-14 11:23:00,
2016-02-14 06:34:00,14.0,5.0,30.51,ENE,78,0.0,3.0,66,-99.99,,,-99.99,,2016-02-14 11:34:00,
2016-02-14 06:46:00,14.0,5.0,30.51,NE,38,2.0,6.0,66,-99.99,,,-99.99,,2016-02-14 11:46:00,
2016-02-14 06:54:00,14.0,5.0,30.51,NE,38,2.0,6.0,66,-99.99,,,-99.99,,2016-02-14 11:54:00,
2016-02-14 07:04:00,14.0,5.0,30.51,NE,41,0.0,4.0,67,-99.99,,,-99.99,,2016-02-14 12:04:00,
2016-02-14 07:13:00,14.0,5.0,30.51,NE,34,0.0,3.0,66,-99.99,,,-99.99,,2016-02-14 12:13:00,
2016-02-14 07:24:00,14.0,5.0,30.51,NE,34,0.0,3.0,66,-99.99,,,-99.99,,2016-02-14 12:24:00,
2016-02-14 07:37:00,14.0,4.0,30.51,East,82,2.0,7.0,65,-99.99,,,-99.99,,2016-02-14 12:37:00,
2016-02-14 07:44:00,14.0,4.0,30.50,East,85,3.0,7.0,65,-99.99,,,-99.99,,2016-02-14 12:44:00,
2016-02-14 07:54:00,14.0,4.0,30.50,East,85,3.0,7.0,65,-99.99,,,-99.99,,2016-02-14 12:54:00,
2016-02-14 08:04:00,14.0,4.0,30.50,East,97,2.0,6.0,64,-99.99,,,-99.99,,2016-02-14 13:04:00,
2016-02-14 08:13:00,14.0,4.0,30.50,East,88,0.0,7.0,65,-99.99,,,-99.99,,2016-02-14 13:13:00,
2016-02-14 08:23:00,14.0,4.0,30.50,East,88,0.0,-999.0,65,-99.99,,,-99.99,,2016-02-14 13:23:00,
2016-02-14 08:34:00,15.0,5.0,30.50,ESE,103,0.0,3.0,65,-99.99,,,-99.99,,2016-02-14 13:34:00,
2016-02-14 08:44:00,15.0,5.0,30.49,NE,44,1.0,4.0,64,-99.99,,,-99.99,,2016-02-14 13:44:00,
2016-02-14 09:04:00,15.0,5.0,30.49,ENE,59,0.0,5.0,64,-99.99,,,-99.99,,2016-02-14 14:04:00,
2016-02-14 09:13:00,16.0,6.0,30.49,ENE,63,0.0,5.0,64,-99.99,,,-99.99,,2016-02-14 14:13:00,
2016-02-14 09:24:00,16.0,6.0,30.49,ENE,63,0.0,5.0,64,-99.99,,,-99.99,,2016-02-14 14:24:00,
2016-02-14 09:37:00,16.0,6.0,30.48,ESE,114,2.0,7.0,63,-99.99,,,-99.99,,2016-02-14 14:37:00,
2016-02-14 09:47:00,16.0,5.0,30.48,South,170,3.0,7.0,62,-99.99,,,-99.99,,2016-02-14 14:47:00,
2016-02-14 10:13:00,17.0,5.0,30.47,SE,138,2.0,9.0,59,-99.99,,,-99.99,,2016-02-14 15:13:00,
2016-02-14 10:23:00,17.0,5.0,30.47,SE,138,2.0,9.0,59,-99.99,,,-99.99,,2016-02-14 15:23:00,
2016-02-14 10:36:00,18.0,6.0,30.45,SE,140,1.0,9.0,60,-99.99,,,-99.99,,2016-02-14 15:36:00,
2016-02-14 11:04:00,18.0,6.0,30.44,ESE,105,2.0,10.0,58,-99.99,,,-99.99,,2016-02-14 16:04:00,
2016-02-14 11:13:00,19.0,7.0,30.43,SE,134,2.0,7.0,59,-99.99,,,-99.99,,2016-02-14 16:13:00,
2016-02-14 11:24:00,19.0,7.0,30.43,SE,134,2.0,-999.0,59,-99.99,,,-99.99,,2016-02-14 16:24:00,
2016-02-14 11:34:00,19.0,6.0,30.43,SE,130,2.0,9.0,56,-99.99,,,-99.99,,2016-02-14 16:34:00,
2016-02-14 11:47:00,19.0,6.0,30.42,SE,143,3.0,12.0,55,-99.99,,,-99.99,,2016-02-14 16:47:00,
2016-02-14 12:04:00,19.0,6.0,30.40,SSE,155,3.0,11.0,55,-99.99,,,-99.99,,2016-02-14 17:04:00,
2016-02-14 12:13:00,19.0,5.0,30.41,South,175,1.0,-999.0,54,-99.99,,,-99.99,,2016-02-14 17:13:00,
2016-02-14 12:23:00,19.0,5.0,30.41,South,175,1.0,-999.0,54,-99.99,,,-99.99,,2016-02-14 17:23:00,
2016-02-14 13:04:00,19.0,6.0,30.35,East,97,4.0,10.0,56,-99.99,,,-99.99,,2016-02-14 18:04:00,
2016-02-14 13:13:00,20.0,7.0,30.35,East,91,2.0,-999.0,56,-99.99,,,-99.99,,2016-02-14 18:13:00,
2016-02-14 13:24:00,20.0,7.0,30.35,East,91,2.0,8.0,56,-99.99,,,-99.99,,2016-02-14 18:24:00,
2016-02-14 13:47:00,20.0,7.0,30.31,SE,126,4.0,11.0,57,-99.99,,,-99.99,,2016-02-14 18:47:00,
2016-02-14 13:54:00,20.0,7.0,30.31,SE,126,4.0,11.0,57,-99.99,,,-99.99,,2016-02-14 18:54:00,
2016-02-14 14:05:00,21.0,9.0,30.29,ENE,63,5.0,12.0,59,-99.99,,,-99.99,,2016-02-14 19:05:00,
2016-02-14 14:14:00,21.0,11.0,30.30,ESE,116,3.0,9.0,64,-99.99,,,-99.99,,2016-02-14 19:14:00,
2016-02-14 14:23:00,21.0,11.0,30.30,ESE,116,3.0,9.0,64,-99.99,,,-99.99,,2016-02-14 19:23:00,
2016-02-14 14:37:00,20.0,11.0,30.29,NE,49,2.0,9.0,67,-99.99,,,-99.99,,2016-02-14 19:37:00,
2016-02-14 14:54:00,20.0,12.0,30.30,NNE,29,3.0,8.0,71,-99.99,,,-99.99,,2016-02-14 19:54:00,
2016-02-14 15:04:00,20.0,13.0,30.31,SE,126,0.0,7.0,73,-99.99,,,-99.99,,2016-02-14 20:04:00,
2016-02-14 15:13:00,19.0,13.0,30.31,East,98,1.0,8.0,76,-99.99,,,-99.99,,2016-02-14 20:13:00,
2016-02-14 15:24:00,19.0,13.0,30.31,East,98,1.0,8.0,76,-99.99,,,-99.99,,2016-02-14 20:24:00,